This is the latest recevied weather packets stored in our database for station/object EA7AVH-10. If no packets are shown the sender has not sent any weather packets the latest 10 day(s).
| Time | Temp. | Humidity | Pressure | Rain* | Wind** | Luminosity | Snow |
|---|---|---|---|---|---|---|---|
| 1777749440 | 17.22° C | 72% | 924.2 hPa | - | - | - | - |
| 1777748539 | 17.78° C | 72% | 924.2 hPa | - | - | - | - |
| 1777747638 | 17.78° C | 70% | 924.1 hPa | - | - | - | - |
| 1777746738 | 18.33° C | 69% | 924.1 hPa | - | - | - | - |
| 1777745837 | 18.33° C | 68% | 923.9 hPa | - | - | - | - |
| 1777744936 | 18.33° C | 68% | 923.9 hPa | - | - | - | - |
| 1777744035 | 18.89° C | 68% | 924 hPa | - | - | - | - |
| 1777743134 | 19.44° C | 65% | 924.1 hPa | - | - | - | - |
| 1777742233 | 20.56° C | 64% | 924.1 hPa | - | - | - | - |
| 1777741353 | 19.44° C | 65% | 924.1 hPa | - | - | - | - |
| 1777740451 | 20° C | 63% | 924.3 hPa | - | - | - | - |
| 1777739551 | 20° C | 63% | 924.4 hPa | - | - | - | - |
| 1777738649 | 20° C | 62% | 924.4 hPa | - | - | - | - |
| 1777737748 | 20.56° C | 62% | 924.5 hPa | - | - | - | - |
| 1777736847 | 20.56° C | 61% | 924.5 hPa | - | - | - | - |
| 1777735947 | 21.11° C | 60% | 924.7 hPa | - | - | - | - |
| 1777735046 | 21.11° C | 60% | 925 hPa | - | - | - | - |
| 1777734145 | 21.67° C | 59% | 925.1 hPa | - | - | - | - |
| 1777733244 | 21.67° C | 59% | 925.3 hPa | - | - | - | - |
| 1777732343 | 21.11° C | 60% | 925.6 hPa | - | - | - | - |
| 1777731443 | 20.56° C | 60% | 925.8 hPa | - | - | - | - |
| 1777730542 | 21.11° C | 59% | 926 hPa | - | - | - | - |
| 1777729641 | 20.56° C | 59% | 925.9 hPa | - | - | - | - |
| 1777728740 | 20° C | 60% | 926.2 hPa | - | - | - | - |
| 1777727840 | 21.11° C | 58% | 926.3 hPa | - | - | - | - |
* Rain since midnight (hover to see other rain measurements)
** Current wind speed in m/s (hover to see current wind gust speed)